Weather History for KDEN - March, 2013

Change the Weather History Date:

Monday, March 18, 2013

  Actual Average Record
Temperature  
Mean Temperature 41 °F 41 °F  
Max Temperature 51 °F 55 °F 82 °F (1907)
Min Temperature 30 °F 27 °F -2 °F (1965)
Degree Days  
Heating Degree Days 24 24  
Month to date heating degree days 463 473  
Since 1 July heating degree days 4735 4912  
Cooling Degree Days 0 0  
Month to date cooling degree days 0 0  
Year to date cooling degree days 0 0  
Moisture  
Dew Point 6 °F    
Average Humidity 26    
Maximum Humidity 38    
Minimum Humidity 13    
Precipitation  
Precipitation 0.00 in 0.02 in 1.53 in (2003)
Month to date precipitation 0.65 0.44  
Year to date precipitation 1.73 1.22  
Snow  
Snow 0.00 in - - ()
Month to date snowfall 11.8  
Since 1 July snowfall 42.9  
Snow Depth 0.00 in    
Sea Level Pressure  
Sea Level Pressure 29.83 in    
Wind  
Wind Speed 15 mph (WNW)    
Max Wind Speed 36 mph    
Max Gust Speed 47 mph    
Visibility 10 miles    
Events      
T = Trace of Precipitation, MM = Missing Value Source: NWS Daily Summary

Daily Weather History Graph

Daily Weather History Graph

Search for Another Location

Airport or City:

Trip Planner

Search our weather history database for the weather conditions in past years. The results will help you decide how hot, cold, wet, or windy it might be!

Date:

Astronomy

Mar. 18, 2013 Rise Set
Actual Time 7:04 AM MDT 7:08 PM MDT
Civil Twilight 6:37 AM MDT 7:35 PM MDT
Nautical Twilight 6:06 AM MDT 8:07 PM MDT
Astronomical Twilight 5:34 AM MDT 8:39 PM MDT
Moon 11:06 AM MDT (3/18) 1:09 AM MDT (3/18)
Length of Visible Light 12h 58m
Length of Day
12h 04m
Waxing Crescent, 41% of the Moon is Illuminated
Mar 18
Waxing Crescent
Mar 19
First Quarter
Mar 27
Full
Apr 2
Last Quarter
Apr 10
New

Hourly Weather History & Observations

Time (MDT) Temp. Windchill Dew Point Humidity Pressure Visibility Wind Dir Wind Speed Gust Speed Precip Events Conditions
12:53 AM 35.1 °F 24.1 °F 10.9 °F 37% 29.75 in 10.0 mi WNW 19.6 mph 25.3 mph N/A   Partly Cloudy
1:53 AM 34.0 °F 25.5 °F 10.0 °F 37% 29.77 in 10.0 mi WNW 11.5 mph - N/A   Partly Cloudy
2:53 AM 30.0 °F 24.1 °F 1.9 °F 30% 29.81 in 10.0 mi NW 5.8 mph - N/A   Partly Cloudy
3:53 AM 30.0 °F 23.2 °F 3.9 °F 33% 29.81 in 10.0 mi NW 6.9 mph - N/A   Partly Cloudy
4:53 AM 32.0 °F 21.2 °F 3.9 °F 31% 29.79 in 10.0 mi NW 16.1 mph - N/A   Partly Cloudy
5:53 AM 32.0 °F 21.6 °F 1.0 °F 27% 29.81 in 10.0 mi WNW 15.0 mph - N/A   Scattered Clouds
6:53 AM 33.1 °F 21.2 °F 3.0 °F 28% 29.85 in 10.0 mi West 20.7 mph - N/A   Mostly Cloudy
7:53 AM 33.1 °F 22.6 °F 3.9 °F 29% 29.88 in 10.0 mi West 16.1 mph 24.2 mph N/A   Mostly Cloudy
8:53 AM 35.1 °F 26.9 °F 3.9 °F 27% 29.88 in 10.0 mi West 11.5 mph - N/A   Scattered Clouds
9:53 AM 39.9 °F 31.1 °F 6.1 °F 25% 29.87 in 10.0 mi West 17.3 mph 29.9 mph N/A   Scattered Clouds
10:53 AM 42.1 °F 35.7 °F 6.1 °F 23% 29.88 in 10.0 mi NW 11.5 mph 26.5 mph N/A   Scattered Clouds
11:53 AM 46.0 °F 38.3 °F 5.0 °F 19% 29.86 in 10.0 mi West 20.7 mph 28.8 mph N/A   Mostly Cloudy
12:53 PM 48.0 °F - 5.0 °F 17% 29.84 in 10.0 mi West 24.2 mph 29.9 mph N/A   Mostly Cloudy
1:53 PM 48.0 °F - 1.9 °F 15% 29.82 in 10.0 mi WNW 21.9 mph 33.4 mph N/A   Mostly Cloudy
2:53 PM 50.0 °F - 3.0 °F 15% 29.80 in 10.0 mi West 29.9 mph 38.0 mph N/A   Mostly Cloudy
3:53 PM 50.0 °F - 1.9 °F 14% 29.80 in 10.0 mi WNW 32.2 mph 41.4 mph N/A   Scattered Clouds
4:53 PM 48.9 °F - 3.9 °F 16% 29.81 in 10.0 mi WNW 21.9 mph 27.6 mph N/A   Scattered Clouds
5:53 PM 48.0 °F - 6.1 °F 18% 29.81 in 10.0 mi West 18.4 mph 27.6 mph N/A   Scattered Clouds
6:53 PM 46.0 °F 38.5 °F 7.0 °F 20% 29.82 in 10.0 mi West 19.6 mph 29.9 mph N/A   Mostly Cloudy
7:53 PM 44.1 °F 37.7 °F 8.1 °F 23% 29.84 in 10.0 mi West 12.7 mph - N/A   Mostly Cloudy
8:53 PM 42.1 °F 36.6 °F 10.0 °F 27% 29.86 in 10.0 mi WNW 9.2 mph - N/A   Scattered Clouds
9:53 PM 41.0 °F 33.9 °F 10.4 °F 29% 29.90 in 10.0 mi WNW 12.7 mph - N/A   Scattered Clouds
10:53 PM 39.0 °F 31.8 °F 12.9 °F 34% 29.87 in 10.0 mi West 11.5 mph - N/A   Scattered Clouds
11:53 PM 39.0 °F - 12.9 °F 34% 29.87 in 10.0 mi Calm Calm - N/A   Scattered Clouds